Weather History for Tri-Cities, TN

Change the Weather History Date:

Sunday, January 24, 2010

  Actual Average Record
Temperature  
Mean Temperature 51 °F 35 °F  
Max Temperature 58 °F 46 °F 78 °F (1972)
Min Temperature 44 °F 25 °F -8 °F (1963)
Degree Days  
Heating Degree Days 14 30  
Month to date heating degree days 815 720  
Since 1 July heating degree days 2501 2449  
Cooling Degree Days 0 0  
Month to date cooling degree days 0 0  
Year to date cooling degree days 0 0  
Moisture  
Dew Point 46 °F    
Average Humidity 81    
Maximum Humidity 100    
Minimum Humidity 62    
Precipitation  
Precipitation 1.00 in 0.11 in 1.00 in (2010)
Month to date precipitation 2.89 2.60  
Year to date precipitation 2.89 2.60  
Snow  
Snow 0.00 in 0.20 in - ()
Month to date snowfall 4.1 3.7  
Since 1 July snowfall 13.0 6.4  
Snow Depth 0.00 in    
Sea Level Pressure  
Sea Level Pressure 29.60 in    
Wind  
Wind Speed 6 mph (SE)    
Max Wind Speed 15 mph    
Max Gust Speed 24 mph    
Visibility 7 miles    
Events Rain    
T = Trace of Precipitation, MM = Missing Value Source: NWS Daily Summary

Daily Weather History Graph

Daily Weather History Graph

Search for Another Location

Airport:

Trip Planner

Search our weather history database for the weather conditions in past years. The results will help you decide how hot, cold, wet, or windy it might be!

Date:

Astronomy

Jan. 24, 2010 Rise Set
Actual Time 7:36 AM EST 5:47 PM EST
Civil Twilight 7:09 AM EST 6:14 PM EST
Nautical Twilight 6:37 AM EST 6:46 PM EST
Astronomical Twilight 6:07 AM EST 7:16 PM EST
Moon 12:09 PM EST (1/24) 2:01 AM EST (1/24)
Length of Visible Light 11h 05m
Length of Day
10h 10m
Waxing Gibbous, 63% of the Moon is Illuminated
Jan 24
Waxing Gibbous
Jan 30
Full
Feb 5
Last Quarter
Feb 13
New
Feb 21
First Quarter

Hourly Weather History & Observations

Time (EST) Temp. Windchill Dew Point Humidity Pressure Visibility Wind Dir Wind Speed Gust Speed Precip Events Conditions
12:53 AM 45.0 °F 39.3 °F 34.0 °F 65% 29.93 in 10.0 mi ESE 11.5 mph 16.1 mph N/A   Mostly Cloudy
1:53 AM 45.0 °F 40.1 °F 34.0 °F 65% 29.92 in 10.0 mi East 9.2 mph - N/A   Overcast
2:53 AM 45.0 °F 39.3 °F 34.0 °F 65% 29.90 in 10.0 mi ESE 11.5 mph - N/A   Overcast
3:53 AM 44.1 °F 40.1 °F 35.1 °F 71% 29.87 in 10.0 mi East 6.9 mph - N/A   Overcast
4:53 AM 45.0 °F 41.8 °F 36.0 °F 71% 29.83 in 10.0 mi East 5.8 mph - N/A   Overcast
5:53 AM 45.0 °F 42.6 °F 37.0 °F 74% 29.81 in 10.0 mi NNE 4.6 mph - N/A   Mostly Cloudy
6:53 AM 46.0 °F - 37.9 °F 73% 29.79 in 10.0 mi Calm Calm - N/A   Overcast
7:53 AM 53.1 °F - 43.0 °F 69% 29.76 in 10.0 mi ESE 9.2 mph 18.4 mph N/A   Overcast
8:53 AM 55.9 °F - 44.1 °F 64% 29.74 in 10.0 mi SSE 11.5 mph 20.7 mph 0.00 in   Overcast
9:53 AM 55.9 °F - 44.1 °F 64% 29.73 in 10.0 mi Calm Calm - N/A   Overcast
10:53 AM 57.0 °F - 44.1 °F 62% 29.72 in 10.0 mi Variable 3.5 mph - N/A   Overcast
11:53 AM 57.0 °F - 45.0 °F 64% 29.69 in 10.0 mi South 8.1 mph - N/A   Overcast
12:53 PM 55.9 °F - 46.0 °F 69% 29.62 in 10.0 mi East 4.6 mph - 0.00 in   Overcast
1:53 PM 57.0 °F - 46.0 °F 67% 29.58 in 10.0 mi SE 6.9 mph - 0.00 in Rain Light Rain
2:53 PM 57.0 °F - 46.0 °F 67% 29.54 in 10.0 mi SE 4.6 mph - 0.00 in Rain Light Rain
3:53 PM 57.0 °F - 46.9 °F 69% 29.54 in 10.0 mi SSE 6.9 mph - 0.00 in Rain Light Rain
4:53 PM 57.0 °F - 48.9 °F 74% 29.54 in 10.0 mi SE 5.8 mph - 0.00 in Rain Light Rain
5:53 PM 54.0 °F - 50.0 °F 86% 29.52 in 4.0 mi East 4.6 mph - 0.12 in Rain Rain
6:33 PM 51.8 °F - 51.8 °F 100% 29.49 in 4.0 mi NE 4.6 mph - 0.14 in Rain Rain
6:51 PM 51.8 °F - 51.8 °F 100% 29.49 in 8.0 mi Calm Calm - 0.17 in Rain Rain
6:53 PM 52.0 °F - 51.1 °F 97% 29.48 in 8.0 mi NE 3.5 mph - 0.18 in Rain Rain
7:53 PM 53.1 °F - 51.1 °F 93% 29.45 in 8.0 mi Calm Calm - 0.05 in Rain Rain
8:53 PM 53.1 °F - 52.0 °F 96% 29.43 in 3.0 mi WNW 5.8 mph - 0.08 in Rain Heavy Rain
9:07 PM 51.8 °F - 51.8 °F 100% 29.45 in 2.5 mi Calm Calm - 0.10 in Rain Heavy Rain
9:41 PM 51.8 °F - 51.8 °F 100% 29.42 in 3.0 mi Calm Calm - 0.26 in Rain Rain
9:53 PM 51.1 °F - 51.1 °F 100% 29.40 in 3.0 mi Calm Calm - 0.27 in Rain Light Rain
10:24 PM 51.8 °F - 51.8 °F 100% 29.42 in 2.5 mi WSW 5.8 mph - 0.09 in Rain Rain
10:31 PM 51.8 °F - 51.8 °F 100% 29.41 in 2.5 mi WSW 5.8 mph - 0.11 in Rain Rain
10:39 PM 51.8 °F - 51.8 °F 100% 29.41 in 3.0 mi SW 5.8 mph - 0.12 in Rain Light Rain
10:53 PM 52.0 °F - 51.1 °F 97% 29.40 in 3.0 mi SW 6.9 mph - 0.14 in Rain Rain
11:12 PM 51.8 °F - 51.8 °F 100% 29.43 in 3.0 mi SSW 4.6 mph - 0.06 in Rain Light Rain
11:53 PM 51.1 °F - 50.0 °F 96% 29.38 in 3.0 mi South 3.5 mph - 0.15 in Rain Light Rain